Location: Newark
(42.8481°N, 0.4872°E)
Time: 18:29:19
(UTC+00:00)

Vanguard 3 - Pass Details

Date: 29 October 2020
Orbit: 508 x 3262 km, 33.3° (Epoch: 24 November)

Event Time Altitude Azimuth Distance (km) Brightness Sun altitude
Rises 12:26:18 0° 280° (W) 7,071 12.0 32.5°
Reaches altitude 10° 12:33:30 10° 265° (W) 5,719 11.8 32.2°
Maximum altitude 12:43:00 18° 230° (SW) 4,372 12.0 31.7°
Drops below altitude 10° 12:50:27 10° 193° (SSW) 4,307 12.4 31.3°
Sets 12:54:47 0° 175° (S) 4,814 12.0 31.0°
